Chanute, KS

10:30 PM CST on February 11, 2016 (GMT -0600)
Chanute Martin Johnson

Weather History for KCNU - November, 2012

Change the Weather History Date:

Monday, November 5, 2012

  Actual Average Record
Temperature  
Mean Temperature 46 °F 51 °F  
Max Temperature 48 °F 62 °F 85 °F (1915)
Min Temperature 44 °F 41 °F 19 °F (1959)
Degree Days  
Heating Degree Days 19 14  
Month to date heating degree days 28 65  
Since 1 July heating degree days 354 353  
Cooling Degree Days 0 0  
Month to date cooling degree days 0 0  
Year to date cooling degree days 2002 1529  
Moisture  
Dew Point 40 °F    
Average Humidity 80    
Maximum Humidity 89    
Minimum Humidity 71    
Precipitation  
Precipitation 0.00 in 0.09 in 1.45 in (2008)
Month to date precipitation T 0.43  
Year to date precipitation 30.28 38.25  
Sea Level Pressure  
Sea Level Pressure 30.07 in    
Wind  
Wind Speed 11 mph (NW)    
Max Wind Speed 20 mph    
Max Gust Speed 25 mph    
Visibility 10 miles    
Events      
T = Trace of Precipitation, MM = Missing Value Source: NWS Daily Summary

Daily Weather History Graph

Daily Weather History Graph

Search for Another Location

Airport or City:

Trip Planner

Search our weather history database for the weather conditions in past years. The results will help you decide how hot, cold, wet, or windy it might be!

Date:

Astronomy

Nov. 05, 2012 Rise Set
Actual Time 6:51 AM CST 5:18 PM CST
Civil Twilight 6:24 AM CST 5:46 PM CST
Nautical Twilight 5:53 AM CST 6:17 PM CST
Astronomical Twilight 5:22 AM CST 6:48 PM CST
Moon 10:57 PM CST (11/5) 12:11 PM CST (11/5)
Length of Visible Light 11h 21m
Length of Day
10h 26m
Waning Gibbous, 62% of the Moon is Illuminated
Nov 5
Waning Gibbous
Nov 6
Last Quarter
Nov 13
New
Nov 20
First Quarter
Nov 28
Full

Hourly Weather History & Observations

Time (CST) Temp. Windchill Dew Point Humidity Pressure Visibility Wind Dir Wind Speed Gust Speed Precip Events Conditions
12:52 AM - - - N/A% 30.03 in 10.0 mi South 8.1 mph - 0.00 in   Mostly Cloudy
1:52 AM - - - N/A% 30.01 in 10.0 mi SSW 6.9 mph - N/A   Overcast
2:52 AM - - - N/A% 30.00 in 10.0 mi WSW 5.8 mph - N/A   Mostly Cloudy
3:52 AM - - - N/A% 29.98 in 10.0 mi West 5.8 mph - N/A   Mostly Cloudy
4:52 AM - - - N/A% 30.00 in 10.0 mi NW 13.8 mph - N/A   Clear
5:52 AM - - - N/A% 30.01 in 10.0 mi NW 10.4 mph - N/A   Clear
6:52 AM - - - N/A% 30.02 in 10.0 mi NW 10.4 mph - N/A   Clear
7:52 AM - - - N/A% 30.04 in 10.0 mi NW 19.6 mph - N/A   Clear
8:18 AM - - - N/A% 30.05 in 10.0 mi NNW 15.0 mph 24.2 mph N/A   Mostly Cloudy
8:52 AM - - - N/A% 30.05 in 10.0 mi NNW 13.8 mph - N/A   Overcast
9:52 AM - - - N/A% 30.07 in 10.0 mi NW 18.4 mph 25.3 mph N/A   Overcast
10:52 AM - - - N/A% 30.08 in 10.0 mi NNW 16.1 mph 23.0 mph N/A   Overcast
11:52 AM 48.0 °F - 39.9 °F 74% 30.08 in 9.0 mi NW 15.0 mph 24.2 mph 0.00 in   Unknown
12:52 PM 48.9 °F - 39.9 °F 71% 30.07 in 10.0 mi NW 13.8 mph 21.9 mph 0.00 in   Overcast
1:52 PM 48.9 °F - 39.0 °F 69% 30.06 in 10.0 mi NNW 15.0 mph 21.9 mph N/A   Overcast
2:52 PM 48.0 °F - 39.0 °F 71% 30.07 in 10.0 mi NNW 12.7 mph - N/A   Overcast
3:52 PM 46.9 °F - 39.0 °F 74% 30.09 in 10.0 mi NNW 11.5 mph 21.9 mph N/A   Overcast
4:52 PM 46.0 °F 41.0 °F 39.0 °F 76% 30.09 in 10.0 mi NNW 10.4 mph - N/A   Overcast
5:52 PM 46.0 °F 41.9 °F 39.0 °F 76% 30.11 in 10.0 mi North 8.1 mph - N/A   Overcast
6:52 PM 45.0 °F 39.3 °F 39.0 °F 80% 30.12 in 10.0 mi North 11.5 mph - N/A   Overcast
7:52 PM 45.0 °F 40.1 °F 41.0 °F 86% 30.11 in 10.0 mi North 9.2 mph - N/A   Overcast
8:10 PM 44.6 °F 40.7 °F 41.0 °F 87% 30.12 in 10.0 mi NNW 6.9 mph - N/A   Overcast
8:52 PM 45.0 °F 41.2 °F 41.0 °F 86% 30.13 in 10.0 mi NNW 6.9 mph - N/A   Overcast
9:25 PM 44.6 °F 40.7 °F 41.0 °F 87% 30.13 in 10.0 mi North 6.9 mph - N/A   Overcast
9:52 PM 44.1 °F 40.8 °F 41.0 °F 89% 30.12 in 10.0 mi North 5.8 mph - N/A   Overcast
10:52 PM 45.0 °F 41.2 °F 37.9 °F 76% 30.11 in 10.0 mi North 6.9 mph - N/A   Overcast
11:52 PM 45.0 °F 41.8 °F 37.9 °F 76% 30.12 in 10.0 mi North 5.8 mph - N/A   Overcast